Date,TemperatureHighF,TemperatureAvgF,TemperatureLowF,DewpointHighF,DewpointAvgF,DewpointLowF,HumidityHigh,HumidityAvg,HumidityLow,PressureMaxIn,PressureMinIn,WindSpeedMaxMPH,WindSpeedAvgMPH,GustSpeedMaxMPH,PrecipitationSumIn
2013-1-1,81,67,56,65,60,54,95,80,55,30.19,30.02,10,1,12,0.00
2013-1-2,82,67,55,70,62,54,97,85,64,30.07,29.98,6,0,10,0.00
2013-1-3,84,69,60,72,64,58,97,86,53,30.11,30.01,5,0,10,0.01
2013-1-4,84,71,63,72,67,61,96,89,67,30.22,30.09,3,0,5,0.03
2013-1-5,80,70,63,70,65,61,95,86,69,30.24,30.13,4,1,9,0.02
2013-1-6,86,71,62,73,66,60,97,87,59,30.17,30.03,3,0,8,0.00
2013-1-7,79,72,66,71,68,64,95,87,74,30.14,30.06,7,1,10,0.01
2013-1-8,86,79,69,73,70,68,96,75,57,30.17,30.07,3,0,10,0.00
2013-1-9,86,76,69,73,69,66,96,79,56,30.24,30.13,9,1,10,0.01
2013-1-10,86,74,65,70,66,62,95,78,47,30.26,30.14,6,1,13,0.01
2013-1-11,85,70,59,70,63,58,96,80,52,30.24,30.11,5,0,10,0.00
2013-1-12,84,71,62,71,65,60,96,83,58,30.15,30.04,5,0,10,0.01
2013-1-13,84,69,58,70,63,56,96,83,59,30.10,30.03,3,0,13,0.01
2013-1-14,83,68,57,67,61,55,96,80,54,30.15,30.08,4,0,8,0.00
2013-1-15,83,72,56,70,64,54,96,78,55,30.12,30.02,4,0,8,0.01
2013-1-16,86,70,55,69,62,54,96,80,52,30.09,29.99,4,0,10,0.01
2013-1-17,83,69,60,72,63,53,96,82,60,30.10,29.98,7,1,17,0.00
2013-1-18,68,59,50,57,51,42,92,75,59,30.27,30.10,4,1,9,0.00
2013-1-19,76,67,60,66,62,57,93,84,70,30.21,30.08,3,0,8,0.00
2013-1-20,81,70,65,69,65,63,95,86,63,30.14,30.00,3,0,8,0.00
2013-1-21,78,68,61,69,64,59,96,89,71,30.08,29.99,4,0,10,0.00
2013-1-22,73,64,55,61,55,47,95,74,54,30.23,30.03,5,0,10,0.00
2013-1-23,74,61,52,55,49,44,84,66,44,30.31,30.21,4,1,10,0.00
2013-1-24,77,60,47,54,47,42,93,69,32,30.29,30.19,3,0,6,0.00
2013-1-25,78,59,42,58,50,40,96,76,43,30.29,30.16,3,0,8,0.00
2013-1-26,81,61,44,56,50,42,95,73,32,30.25,30.14,4,0,7,0.00
2013-1-27,82,66,50,63,56,48,96,74,47,30.26,30.17,9,1,9,0.00
2013-1-28,84,70,59,67,61,56,95,75,50,30.28,30.17,5,0,10,0.00
2013-1-29,84,71,58,70,64,56,96,80,56,30.22,30.07,5,0,11,0.00
2013-1-30,83,71,61,69,65,59,95,82,57,30.09,29.95,7,1,13,0.00
2013-1-31,70,63,50,64,54,39,95,75,50,30.19,29.97,5,1,7,0.12
2013-2-1,72,56,44,50,42,38,86,63,33,30.29,30.19,6,1,14,0.01
2013-2-2,78,59,42,54,46,38,92,67,37,30.26,30.10,3,0,10,0.00
2013-2-3,76,59,47,53,45,34,92,66,23,30.19,30.06,4,0,10,0.00
2013-2-4,77,56,38,51,44,31,96,70,21,30.14,30.01,5,0,7,0.00
2013-2-5,82,62,44,60,52,42,94,72,44,30.07,29.98,4,0,9,0.00
2013-2-6,84,68,53,67,60,51,95,78,53,30.10,30.00,6,0,7,0.00
2013-2-7,84,69,56,67,61,54,96,79,48,30.06,29.92,5,1,10,0.00
2013-2-8,84,73,63,71,65,60,95,79,50,30.04,29.88,6,1,10,0.00
2013-2-9,81,68,56,66,61,54,96,79,52,30.14,30.03,3,0,8,0.01
2013-2-10,84,72,59,66,62,56,91,73,49,30.21,30.11,6,1,10,0.01
2013-2-11,85,70,57,69,63,55,96,81,56,30.18,30.07,5,1,9,0.00
2013-2-12,84,70,58,72,65,56,96,84,65,30.10,29.95,7,1,10,0.00
2013-2-13,86,75,62,74,70,60,96,84,62,29.99,29.90,8,1,13,0.01
2013-2-14,82,66,60,73,64,58,96,92,75,30.02,29.86,5,1,10,1.60
2013-2-15,68,63,60,65,61,58,95,94,88,30.04,29.93,2,0,3,0.40
2013-2-16,70,63,54,62,56,49,96,78,56,30.09,29.90,12,2,17,0.01
2013-2-17,61,51,36,49,34,26,89,55,29,30.32,30.09,7,1,11,0.00
2013-2-18,73,53,33,52,42,31,94,71,42,30.31,30.19,5,1,12,0.00
2013-2-19,83,63,47,66,56,45,96,81,56,30.20,30.07,6,0,9,0.00
2013-2-20,84,66,52,66,58,51,96,77,42,30.10,29.98,6,0,8,0.00
2013-2-21,86,70,57,70,62,55,96,80,52,30.07,29.97,4,0,7,0.00
2013-2-22,88,71,58,72,65,56,96,82,57,30.07,29.97,8,1,9,0.00
2013-2-23,86,74,62,74,69,60,96,86,66,30.02,29.90,7,1,11,0.00
2013-2-24,89,76,67,74,69,65,96,83,53,29.97,29.89,5,1,11,0.01
2013-2-25,86,73,62,75,68,61,96,86,63,29.90,29.78,3,0,10,0.01
2013-2-26,85,77,70,75,72,67,95,85,71,29.89,29.75,11,1,15,0.01
2013-2-27,74,68,64,67,64,62,95,89,70,29.97,29.86,1,0,8,0.11
2013-2-28,75,64,59,63,58,55,95,81,52,30.02,29.91,6,0,10,0.01
2013-3-1,68,62,58,59,54,50,91,75,56,30.00,29.91,3,0,9,0.00
2013-3-2,61,56,52,50,46,43,84,69,53,30.03,29.98,5,0,10,0.01
2013-3-3,64,53,44,49,46,41,94,81,52,30.14,29.97,8,1,13,0.14
2013-3-4,71,52,35,49,42,33,95,73,35,30.22,30.11,3,0,7,0.01
2013-3-5,79,57,37,58,48,35,96,77,46,30.16,30.08,5,1,11,0.00
2013-3-6,74,59,48,65,51,43,96,77,42,30.12,30.01,7,1,16,0.04
2013-3-7,69,54,43,48,42,37,91,67,36,30.21,30.09,6,1,10,0.01
2013-3-8,78,58,39,52,46,37,95,71,32,30.20,30.09,5,0,7,0.00
2013-3-9,78,61,42,56,49,40,96,68,32,30.19,30.09,3,0,10,0.00
2013-3-10,81,66,50,59,55,48,95,70,45,30.15,30.02,6,1,11,0.00
2013-3-11,82,68,53,64,59,51,96,75,53,30.09,29.92,6,1,12,0.00
2013-3-12,77,68,60,70,64,57,95,87,79,30.02,29.88,6,1,11,0.00
2013-3-13,79,63,50,57,50,40,94,66,26,30.15,30.01,5,1,10,0.00
2013-3-14,75,59,47,51,42,30,89,59,19,30.23,30.11,6,1,12,0.00
2013-3-15,76,58,43,49,42,32,92,63,22,30.27,30.13,4,0,11,0.00
2013-3-16,80,60,41,56,48,39,96,69,32,30.18,30.07,6,1,10,0.00
2013-3-17,82,64,47,63,55,45,95,75,49,30.12,29.99,6,0,9,0.00
2013-3-18,81,68,57,70,64,54,95,87,68,30.04,29.94,6,1,10,0.38
2013-3-19,82,70,63,70,66,60,95,86,66,30.01,29.84,5,0,10,0.10
2013-3-20,87,68,57,67,61,56,96,81,40,29.99,29.82,5,1,10,0.11
2013-3-21,78,66,51,63,55,47,95,72,35,29.95,29.83,4,1,10,0.11
2013-3-22,84,65,47,72,59,45,95,83,65,29.96,29.87,8,1,10,0.01
2013-3-23,88,77,68,74,69,65,96,80,55,29.94,29.80,6,1,13,0.00
2013-3-24,84,75,65,75,71,63,96,86,71,29.86,29.69,9,2,19,0.02
2013-3-25,81,72,60,74,58,33,93,65,29,30.02,29.74,9,1,11,0.01
2013-3-26,68,58,50,48,43,38,82,58,36,30.23,30.02,10,2,15,0.00
2013-3-27,69,54,43,47,40,34,82,61,30,30.29,30.18,8,1,11,0.00
2013-3-28,75,57,40,50,41,31,91,61,20,30.28,30.15,6,1,10,0.00
2013-3-29,79,60,40,51,44,38,95,62,27,30.29,30.17,4,0,10,0.00
2013-3-30,81,63,48,58,52,45,95,70,40,30.24,30.11,6,1,10,0.00
2013-3-31,84,67,50,64,57,-100,96,74,47,30.19,30.01,9,1,10,0.00
2013-4-1,86,71,58,70,64,56,96,80,51,30.04,29.96,9,1,14,0.00
2013-4-2,87,73,61,69,65,59,96,78,49,30.08,29.99,3,1,10,0.00
2013-4-3,90,75,62,71,66,60,95,77,49,30.06,29.93,5,1,12,0.00
2013-4-4,84,72,66,74,68,63,94,87,71,30.02,29.87,5,1,11,0.60
2013-4-5,72,68,61,69,65,57,95,90,79,30.00,29.80,3,1,12,0.76
2013-4-6,79,67,59,64,59,56,93,78,53,30.08,29.94,6,1,8,0.01
2013-4-7,86,71,57,67,61,55,95,75,44,30.11,30.01,4,0,10,0.00
2013-4-8,87,74,60,68,62,57,94,69,43,30.10,30.00,7,1,8,0.00
2013-4-9,88,73,58,69,63,56,95,73,47,30.11,30.03,6,1,9,0.00
2013-4-10,88,73,63,74,68,61,95,85,60,30.09,29.94,8,1,11,0.72
2013-4-11,86,77,70,76,72,68,95,84,67,29.98,29.84,6,1,14,0.18
2013-4-12,90,80,74,76,73,71,95,82,57,29.93,29.85,10,1,10,0.02
2013-4-13,91,80,72,74,72,68,92,76,55,29.96,29.83,3,0,9,0.01
2013-4-14,90,78,67,77,71,65,95,80,59,29.95,29.83,6,1,10,0.00
2013-4-15,94,80,67,77,71,64,93,77,53,30.05,29.91,8,1,9,0.01
2013-4-16,92,79,68,75,71,66,94,78,51,30.10,29.99,6,1,10,0.01
2013-4-17,88,78,69,73,69,66,93,76,55,30.10,29.98,6,1,10,0.00
2013-4-18,91,79,68,75,70,65,91,74,52,30.03,29.92,6,1,8,0.00
2013-4-19,92,80,70,75,72,67,94,78,54,30.01,29.92,4,1,12,0.01
2013-4-20,92,78,67,77,71,65,95,79,52,30.08,29.93,4,1,10,0.01
2013-4-21,89,73,67,74,69,65,93,87,60,30.09,29.96,3,0,12,0.32
2013-4-22,87,75,68,74,69,66,94,85,58,30.05,29.91,4,0,10,0.08
2013-4-23,87,75,66,70,66,63,93,76,50,30.07,29.96,6,1,11,0.01
2013-4-24,88,74,59,69,64,57,95,73,47,30.11,30.03,4,1,9,0.01
2013-4-25,89,74,61,67,62,55,95,69,34,30.18,30.06,5,1,10,0.00
2013-4-26,88,75,59,66,63,57,93,69,48,30.21,30.11,5,1,11,0.00
2013-4-27,88,74,60,66,62,58,95,69,44,30.19,30.04,7,1,10,0.00
2013-4-28,89,75,64,71,64,-100,91,74,46,30.09,29.95,7,1,10,0.00
2013-4-29,90,72,62,72,66,59,93,82,51,30.01,29.91,3,0,8,0.32
2013-4-30,88,75,65,75,69,63,95,82,59,29.97,29.89,7,0,10,0.02
2013-5-1,83,72,66,75,68,64,94,90,76,29.96,29.88,6,0,11,0.26
2013-5-2,72,70,66,70,68,64,95,94,88,29.94,29.79,3,0,5,0.74
2013-5-3,86,74,62,72,67,61,96,81,57,29.84,29.69,4,1,10,0.72
2013-5-4,84,74,65,72,67,63,95,80,64,29.81,29.69,10,2,16,2.75
2013-5-5,83,74,65,67,62,57,87,68,44,29.95,29.78,8,2,16,9.74
2013-5-6,82,68,54,68,61,52,94,78,59,30.00,29.93,9,1,10,0.00
2013-5-7,82,69,56,65,61,54,94,76,53,30.06,29.97,8,1,12,0.00
2013-5-8,85,70,55,66,60,53,95,74,45,30.12,30.04,5,0,9,0.00
2013-5-9,92,71,53,67,60,51,95,73,40,30.12,30.06,3,0,9,0.00
2013-5-10,93,76,62,74,65,-100,93,75,48,30.11,29.98,4,1,10,0.00
2013-5-11,92,78,66,75,71,64,94,79,56,30.04,29.98,6,1,10,0.00
2013-5-12,88,78,69,77,71,-100,95,83,66,30.04,29.91,6,1,13,0.00
2013-5-13,89,78,66,73,69,61,95,76,55,30.09,29.99,10,1,11,0.00
2013-5-14,87,75,62,64,58,54,84,58,37,30.16,30.07,5,1,10,0.00
2013-5-15,87,73,56,64,60,54,93,67,44,30.16,30.05,5,1,10,0.00
2013-5-16,87,69,61,66,41,-100,92,68,42,30.09,29.98,5,0,10,0.00
2013-5-17,92,77,62,69,59,-100,92,67,40,30.06,30.00,5,1,10,0.00
2013-5-18,92,77,63,77,69,61,94,79,51,30.08,30.00,7,1,10,0.24
2013-5-19,91,78,68,75,70,66,94,79,49,30.08,29.95,5,0,9,0.49
2013-5-20,92,77,70,77,71,68,95,84,53,30.05,29.95,7,0,14,1.46
2013-5-21,88,76,68,76,71,66,95,86,62,30.00,29.88,3,0,10,0.17
2013-5-22,90,78,67,76,71,65,95,80,59,29.94,29.86,5,1,11,0.04
2013-5-23,90,79,67,74,70,65,93,77,55,30.01,29.90,5,1,8,0.00
2013-5-24,95,80,69,76,70,65,93,74,43,30.06,29.95,4,1,11,0.00
2013-5-25,92,78,65,75,67,62,92,72,47,30.14,30.02,7,1,11,0.00
2013-5-26,88,78,66,69,66,62,88,69,49,30.15,30.06,5,1,10,0.00
2013-5-27,86,76,65,74,68,62,90,77,62,30.14,30.00,8,1,11,0.01
2013-5-28,86,77,72,76,72,69,90,84,65,30.09,30.01,7,1,14,0.17
2013-5-29,82,75,71,75,71,68,92,88,76,30.07,29.98,4,1,10,0.49
2013-5-30,87,77,70,77,72,67,92,85,70,30.03,29.94,5,1,12,0.27
2013-5-31,88,77,72,77,73,69,92,86,66,30.02,29.97,3,0,8,0.76
2013-6-1,89,78,74,78,74,71,92,86,65,30.02,29.93,3,0,8,0.40
2013-6-2,92,80,71,78,72,-100,92,81,58,30.00,29.91,6,1,9,0.02
2013-6-3,83,78,73,76,73,70,91,86,77,29.99,29.90,4,0,6,0.01
2013-6-4,81,76,72,76,73,69,92,89,84,30.02,29.94,3,0,5,0.68
2013-6-5,79,77,74,76,74,71,92,90,88,29.99,29.84,4,0,8,0.38
2013-6-6,84,77,73,79,73,70,92,89,76,29.86,29.74,7,1,18,2.07
2013-6-7,87,81,74,79,75,71,90,83,67,29.97,29.89,6,1,12,0.85
2013-6-8,92,82,74,80,75,71,91,81,58,30.08,29.95,3,0,10,0.01
2013-6-9,94,83,75,77,74,71,91,76,51,30.08,29.98,4,0,10,0.01
2013-6-10,94,83,74,79,75,71,91,79,55,30.06,29.97,4,1,9,0.00
2013-6-11,96,80,70,79,74,66,91,82,55,30.06,29.97,10,0,15,1.86
2013-6-12,95,78,72,79,73,69,93,86,52,30.05,29.97,1,0,6,1.32
2013-6-13,93,77,68,78,72,66,93,85,53,30.04,29.93,5,0,9,0.06
2013-6-14,91,80,70,78,73,67,92,79,61,29.96,29.88,5,1,11,0.01
2013-6-15,94,81,70,79,74,67,92,78,54,30.02,29.93,4,0,9,0.01
2013-6-16,94,83,73,79,75,70,90,79,54,30.07,29.98,5,1,7,0.18
2013-6-17,96,81,73,79,74,70,92,82,50,30.08,29.98,7,0,11,0.70
2013-6-18,96,81,72,79,74,69,93,82,52,30.05,29.96,3,0,10,0.78
2013-6-19,96,80,73,82,74,69,91,83,55,30.04,29.95,7,0,10,0.34
2013-6-20,92,80,72,79,73,69,91,81,57,30.06,30.00,8,0,8,0.04
2013-6-22,94,87,80,78,75,72,86,68,49,30.08,30.00,3,1,7,0.02
2013-6-23,92,80,71,78,73,68,91,81,59,30.11,30.03,3,0,9,0.01
2013-6-24,92,80,72,78,73,69,92,80,56,30.13,30.05,6,0,11,0.00
2013-6-25,92,79,71,78,73,68,91,81,59,30.11,30.00,5,0,17,2.00
2013-6-26,90,79,73,79,74,69,89,83,68,30.06,30.01,5,0,15,0.07
2013-6-27,92,76,71,79,71,67,89,84,58,30.03,29.94,4,0,8,0.47
2013-6-28,90,78,71,79,72,67,90,83,67,29.98,29.90,2,0,3,1.08
2013-6-29,92,86,75,78,76,71,88,73,59,29.88,29.82,7,1,11,0.10
2013-6-30,90,80,75,79,74,71,88,84,70,29.91,29.82,5,1,14,0.56
2013-7-1,87,77,71,79,72,67,89,85,73,30.01,29.92,3,0,11,3.08
2013-7-2,90,78,73,79,72,69,88,84,70,30.08,29.94,5,0,11,0.22
2013-7-3,88,76,73,78,72,69,88,86,71,30.10,30.02,3,0,9,0.01
2013-7-4,91,80,71,79,74,67,89,82,60,30.12,30.03,6,0,12,0.47
2013-7-5,88,78,74,78,72,70,88,84,69,30.12,30.02,9,1,11,0.12
2013-7-6,92,81,74,78,73,70,89,79,56,30.10,29.98,5,0,11,0.11
2013-7-7,92,81,75,77,74,71,87,80,59,30.08,29.99,5,1,11,0.19
2013-7-8,93,79,71,77,70,-100,89,78,49,30.12,30.04,5,0,10,0.02
2013-7-9,88,78,72,76,72,68,88,83,62,30.12,30.03,4,0,12,0.30
2013-7-10,90,77,70,76,69,-100,89,80,60,30.07,29.98,3,0,10,0.02
2013-7-11,90,80,71,78,73,67,88,81,65,30.02,29.92,4,0,7,0.26
2013-7-12,89,79,72,78,72,68,88,82,67,29.96,29.88,4,0,10,0.05
2013-7-13,88,76,71,78,71,67,89,85,72,29.98,29.90,4,0,12,1.17
2013-7-14,84,76,73,77,71,69,88,86,77,30.07,29.95,6,0,15,0.32
2013-7-15,91,77,72,77,72,68,88,83,58,30.06,29.98,3,0,8,0.06
2013-7-16,86,78,72,76,72,68,88,80,65,30.10,30.02,7,1,16,0.08
2013-7-17,86,79,73,75,72,69,88,80,66,30.10,30.00,5,1,14,0.03
2013-7-18,82,74,71,76,70,67,88,87,82,30.11,30.03,1,0,7,0.92
2013-7-19,91,79,70,80,73,66,89,81,61,30.10,30.01,3,0,7,0.01
2013-7-20,78,75,74,74,69,-100,87,85,81,30.10,30.01,2,0,3,0.04
2013-7-21,91,80,74,81,75,70,89,83,68,30.13,30.02,3,0,6,0.11
2013-7-22,94,81,72,80,74,68,88,81,60,30.13,30.06,3,0,8,0.08
2013-7-23,94,82,72,78,74,68,88,78,57,30.09,29.97,2,0,9,0.00
2013-7-24,91,82,71,77,73,67,87,75,58,30.02,29.92,8,1,10,0.00
2013-7-25,92,81,71,79,74,67,87,79,64,30.01,29.91,6,1,11,0.00
2013-7-26,94,84,77,79,76,72,87,78,59,30.03,29.95,6,1,11,0.01
2013-7-27,95,83,75,78,75,71,88,78,58,29.99,29.92,5,1,12,0.01
2013-7-28,95,82,71,77,73,67,88,75,52,30.05,29.93,6,0,10,0.00
2013-7-29,94,79,72,79,72,68,87,81,58,30.09,30.01,4,0,10,1.04
2013-7-30,92,83,75,81,76,71,87,80,66,30.14,30.05,5,0,11,0.08
2013-7-31,92,80,72,79,73,68,88,81,63,30.10,30.02,5,0,11,0.51
2013-8-1,74,74,73,70,70,69,86,86,86,29.98,29.96,0,0,2,9.74
2013-8-2,94,81,70,79,73,66,89,79,54,30.03,29.92,0,0,1,9.74
2013-8-3,91,79,75,79,74,71,87,85,68,30.11,30.00,0,0,1,1.25
2013-8-4,93,83,75,81,76,71,87,81,65,30.09,30.00,8,1,10,0.03
2013-8-5,93,83,75,81,76,71,87,80,64,30.04,29.93,6,1,10,0.01
2013-8-6,94,82,75,79,75,71,87,80,56,29.98,29.89,5,0,8,0.02
2013-8-7,92,79,73,80,74,69,87,83,64,29.94,29.88,3,0,10,0.05
2013-8-8,95,82,74,79,74,70,87,77,50,30.00,29.88,4,0,9,0.01
2013-8-9,90,78,72,78,72,68,87,82,64,30.03,29.93,0,0,9,0.11
2013-8-10,94,82,72,79,73,68,88,75,53,30.09,30.00,5,0,10,0.06
2013-8-11,96,84,74,79,74,70,87,75,49,30.11,30.01,5,1,10,0.01
2013-8-12,95,81,70,78,72,66,87,76,50,30.10,29.97,4,0,10,0.00
2013-8-20,90,78,72,79,71,-100,89,83,66,30.04,29.96,3,0,6,0.08
2013-8-21,91,80,76,82,75,72,87,83,70,30.04,29.95,2,0,9,0.32
2013-8-22,94,80,74,80,74,69,87,81,59,30.04,29.93,2,0,8,0.52
2013-8-23,90,77,73,80,72,69,88,85,70,30.01,29.92,0,0,7,1.07
2013-8-24,94,79,72,80,72,68,88,81,55,30.10,29.96,4,0,10,1.53
2013-8-25,88,78,74,78,71,-100,86,82,72,30.11,30.00,6,0,7,0.05
2013-8-26,90,78,71,80,72,67,87,82,64,30.09,29.98,2,0,8,0.47
2013-8-27,89,77,69,77,71,65,88,80,63,30.03,29.97,3,0,6,0.50
2013-8-31,92,80,71,79,73,66,87,78,59,29.97,29.89,3,1,9,0.02
2013-9-1,93,79,73,79,71,-100,87,78,61,29.98,29.91,5,0,7,0.01
2013-9-2,89,76,72,80,70,67,86,84,73,30.02,29.93,0,0,3,1.29
2013-9-3,94,79,70,78,72,66,88,81,56,30.01,29.92,0,0,1,8.81
2013-9-4,90,77,73,79,72,68,86,84,70,30.04,29.93,0,0,1,1.08
2013-9-5,92,81,75,79,74,70,85,80,61,30.05,29.97,1,0,1,0.00
2013-9-6,93,83,72,80,74,67,86,77,58,30.05,29.88,4,0,6,2.01
2013-9-20,90,80,73,75,71,68,86,76,57,29.99,29.87,3,0,9,0.01
2013-9-21,90,78,68,76,71,64,86,78,57,29.91,29.76,3,0,8,0.01
2013-9-22,91,79,70,78,70,-100,87,78,62,29.85,29.76,3,1,9,0.00
2013-9-23,86,79,74,79,74,69,86,84,79,29.95,29.83,3,0,5,0.21
2013-9-24,88,78,73,79,72,68,86,83,74,29.95,29.88,7,1,13,0.23
2013-9-25,88,77,72,78,71,67,86,84,72,29.90,29.78,1,0,7,0.10
2013-9-26,88,79,73,81,74,68,87,84,75,29.86,29.80,4,1,12,0.42
2013-9-27,90,79,71,75,70,66,86,76,56,29.91,29.83,2,0,7,0.05
2013-9-28,90,79,69,76,71,64,86,76,55,29.95,29.85,3,0,7,0.01
2013-9-29,90,77,70,76,68,-100,86,78,59,29.95,29.85,4,0,7,0.01
2013-9-30,92,77,67,77,70,62,87,79,53,29.98,29.87,2,0,6,0.67
2013-10-1,80,77,71,72,71,66,85,81,77,30.01,29.97,1,0,5,0.01
2013-10-2,90,79,73,78,73,69,86,81,66,30.01,29.92,7,1,10,0.00
2013-10-3,90,77,73,78,72,68,87,83,67,30.02,29.92,4,0,5,1.97
2013-10-4,89,80,72,77,72,67,86,79,62,30.04,29.96,2,0,6,0.02
2013-10-5,90,79,70,73,70,65,86,76,52,30.03,29.90,3,0,5,0.00
2013-10-6,91,79,69,76,71,64,86,77,59,29.96,29.86,3,0,7,0.00
2013-10-7,88,79,71,78,72,66,86,81,71,29.88,29.80,6,1,13,0.01
2013-10-8,89,78,69,76,70,64,86,79,63,29.93,29.83,4,0,9,0.01
2013-10-9,88,77,69,75,70,64,86,80,63,29.99,29.90,4,0,7,0.00
2013-10-10,88,77,68,74,69,63,86,77,56,30.01,29.92,2,0,7,0.00
2013-10-13,87,75,67,73,65,-100,86,74,53,30.04,29.94,1,0,6,0.00
2013-10-14,88,74,64,70,65,60,87,76,49,30.01,29.89,3,0,7,0.00
2013-10-15,90,78,66,73,67,62,86,72,46,29.96,29.85,3,0,6,0.00
2013-10-16,90,76,64,73,67,60,87,76,50,29.94,29.86,5,0,9,0.00
2013-10-17,92,78,66,74,69,61,87,77,54,29.96,29.87,3,0,6,0.00
2013-10-18,91,78,66,75,70,62,87,77,54,29.96,29.87,4,0,7,0.00
2013-10-19,92,79,68,77,72,63,86,78,57,29.94,29.84,3,0,8,0.00
2013-10-20,94,80,71,78,70,-100,86,75,57,29.93,29.85,3,0,6,0.00
2013-10-21,90,78,69,79,72,64,86,81,69,29.98,29.89,3,0,9,0.00
2013-10-22,92,80,70,78,72,65,86,79,62,29.95,29.83,7,1,10,0.03
2013-10-23,87,78,70,77,70,61,87,77,64,29.96,29.81,3,0,7,0.03
2013-10-24,76,71,68,65,61,57,81,71,64,30.10,29.95,4,0,9,0.00
2013-10-25,83,74,67,66,64,62,86,72,55,30.17,30.08,7,1,10,0.00
2013-10-26,86,71,63,67,62,58,87,74,47,30.15,30.04,3,0,9,0.00
2013-10-27,85,71,59,65,59,-100,88,70,43,30.09,30.00,3,0,8,0.00
2013-10-28,87,70,59,69,60,-100,87,76,48,30.14,30.05,4,0,9,0.00
2013-10-29,87,73,62,71,65,58,87,75,55,30.17,30.06,7,0,10,0.00
2013-10-30,87,73,63,70,64,59,87,74,48,30.16,30.04,7,0,11,0.00
2013-10-31,90,73,61,72,64,57,87,76,46,30.10,29.95,7,0,7,0.00
2013-11-1,90,74,63,75,66,59,87,78,52,30.00,29.88,5,0,10,0.00
2013-11-2,88,75,65,75,67,61,88,79,61,29.94,29.82,3,0,10,0.00
2013-11-3,83,72,65,65,55,-100,83,59,37,30.04,29.92,4,1,13,0.00
2013-11-4,82,71,62,68,61,55,83,71,55,30.08,30.01,12,1,15,0.00
2013-11-5,85,76,68,71,68,64,87,78,59,30.05,29.99,4,1,20,0.00
2013-11-6,88,78,68,73,69,64,87,76,60,30.04,29.95,6,1,11,0.00
2013-11-7,69,67,66,65,63,62,87,86,85,30.00,29.95,0,0,1,0.00
2013-11-9,79,73,72,73,65,-100,87,83,81,30.09,30.03,4,0,7,0.00
2013-11-10,87,77,72,72,69,67,87,78,61,30.11,30.01,4,1,10,0.00
2013-11-11,72,69,67,68,65,63,87,86,85,30.09,30.05,2,0,5,0.00
2013-12-2,78,68,62,66,62,58,87,81,65,29.96,29.82,4,0,6,0.00
2013-12-3,82,68,58,68,61,54,87,81,61,29.98,29.89,3,0,7,0.00
2013-12-4,83,70,59,71,63,55,88,79,62,30.06,29.96,3,0,7,0.00
2013-12-5,85,71,60,71,64,56,87,79,58,30.14,30.04,3,0,10,0.00
2013-12-6,87,72,62,73,66,58,87,80,57,30.16,30.06,4,0,7,0.00
2013-12-7,87,74,58,71,64,-100,88,76,55,30.20,30.10,3,0,5,0.00
2013-12-8,86,74,63,70,65,59,87,76,54,30.17,30.07,3,0,8,0.00
2013-12-9,87,73,63,73,65,59,87,77,50,30.15,30.06,4,1,10,0.00
2013-12-10,89,72,61,73,64,57,87,78,55,30.14,30.05,2,0,6,0.00
2013-12-11,86,73,65,72,67,61,87,81,62,30.20,30.09,3,0,6,0.00
2013-12-12,73,68,59,68,62,49,87,83,65,30.23,30.13,6,1,9,0.00
2013-12-13,81,68,54,66,59,49,87,74,59,30.21,30.06,7,1,10,0.00
2013-12-14,86,74,64,73,65,-100,87,79,61,30.09,29.95,4,1,9,0.00
2013-12-15,80,73,68,73,68,63,87,85,79,30.07,29.91,4,0,5,0.09